CAPE
nan nan nan nan nan nan nan nan nan nan nan nan nan nan nan nan nan nan nan nan nan nan nan nan nan nan nan nan nan nan nan nan nan nan nan nan 0 0 1 3 3 5 7 8 8 11 12 15 15 18 20 23 26 26 28 29 29 29 31 30 30 32 32 30 30 31 30 31 30 30 28 24 22 22 20 23 23 23 22 21 21 23 22 24 24 28
nan nan nan nan nan nan nan nan nan nan nan nan nan nan nan nan nan nan nan nan nan nan nan nan nan nan nan nan nan nan nan nan nan nan nan nan 0 0 1 3 3 5 6 8 8 10 12 13 13 15 17 19 22 22 23 24 24 25 24 24 24 25 26 26 26 27 27 26 25 25 22 19 18 18 19 22 24 24 24 23 23 24 24 28 28 32
nan nan nan nan nan nan nan nan nan nan nan nan nan nan nan nan nan nan nan nan nan nan nan nan nan nan nan nan nan nan nan nan nan nan nan nan 0 0 0 1 1 3 3 4 4 6 8 9 9 12 13 15 16 16 18 20 20 19 19 17 17 16 18 20 20 20 21 20 18 18 17 17 16 16 19 23 25 25 26 26 26 26 29 34 34 39
nan nan nan nan nan nan nan nan nan nan nan nan nan nan nan nan nan nan nan nan nan nan nan nan nan nan nan nan nan nan nan nan nan nan nan nan nan nan 0 0 0 1 1 1 1 3 4 6 6 8 10 12 14 14 15 16 16 15 13 12 12 12 12 13 13 15 14 14 13 13 14 16 18 18 21 23 25 25 26 28 28 31 34 39 39 43
nan nan nan nan nan nan nan nan nan nan nan nan nan nan nan nan nan nan nan nan nan nan nan nan nan nan nan nan nan nan nan nan nan nan nan nan nan nan nan nan nan 0 1 1 1 2 3 4 4 7 9 11 12 12 13 12 12 13 11 10 10 9 10 11 11 11 10 12 13 13 15 17 19 19 19 23 26 26 28 29 29 31 35 40 40 47
nan nan nan nan nan nan nan nan nan nan nan nan nan nan nan nan nan nan nan nan nan nan nan nan nan nan nan nan nan nan nan nan nan nan nan nan nan nan nan nan nan 0 1 2 2 3 3 5 5 8 9 11 12 12 12 11 11 10 10 9 9 9 10 10 10 10 10 11 13 13 15 16 18 18 17 19 23 23 27 28 28 31 34 41 41 48
nan nan nan nan nan nan nan nan nan nan nan nan nan nan nan nan nan nan nan nan nan nan nan nan nan nan nan nan nan nan nan nan nan nan nan nan nan nan nan nan nan 0 1 2 2 3 3 6 6 7 8 8 9 9 9 9 9 10 10 9 9 9 9 9 9 10 10 10 11 11 12 12 13 13 13 16 21 21 27 29 29 31 34 40 40 49
nan nan nan nan nan nan nan nan nan nan nan nan nan nan nan nan nan nan nan nan nan nan nan nan nan nan nan nan nan nan nan nan nan nan nan nan nan nan nan nan nan nan nan nan nan nan nan 0 0 1 2 3 4 4 4 4 4 5 6 6 6 7 8 8 8 9 9 8 8 8 8 9 10 10 11 14 17 17 24 33 33 39 44 48 48 51
nan nan nan nan nan nan nan nan nan nan nan nan nan nan nan nan nan nan nan nan nan nan nan nan nan nan nan nan nan nan nan nan nan nan nan nan nan nan nan nan nan nan nan nan nan nan nan nan nan 0 1 1 2 2 2 3 3 3 3 4 4 5 6 7 7 7 7 6 6 6 7 8 11 11 14 16 20 20 22 29 29 39 46 51 51 55
nan nan nan nan nan nan nan nan nan nan nan nan nan nan nan nan nan nan nan nan nan nan nan nan nan nan nan nan nan nan nan nan nan nan nan nan nan nan nan nan nan nan nan nan nan nan nan nan nan nan nan 0 0 0 0 1 1 1 2 2 2 3 3 3 3 3 4 5 6 6 8 12 16 16 18 20 22 22 22 26 26 32 40 50 50 56
nan nan nan nan nan nan nan nan nan nan nan nan nan nan nan nan nan nan nan nan nan nan nan nan nan nan nan nan nan nan nan nan nan nan nan nan nan nan nan nan nan nan nan nan nan nan nan nan nan nan nan nan nan nan nan nan nan 0 0 0 0 1 0 1 1 2 3 6 9 9 14 18 20 20 21 21 22 22 24 26 26 28 34 43 43 52
nan nan nan nan nan nan nan nan nan nan nan nan nan nan nan nan nan nan nan nan nan nan nan nan nan nan nan nan nan nan nan nan nan nan nan nan nan nan nan nan nan nan nan nan nan nan nan nan nan nan nan nan nan nan nan nan nan nan nan nan nan 0 0 1 1 3 6 10 15 15 19 20 21 21 22 23 23 23 24 26 26 29 33 39 39 48
nan nan nan nan nan nan nan nan nan nan nan nan nan nan nan nan nan nan nan nan nan nan nan nan nan nan nan nan nan nan nan nan nan nan nan nan nan nan nan nan nan nan nan nan nan nan nan nan nan nan nan nan nan nan nan nan nan nan nan nan nan 0 1 4 4 7 12 17 18 18 19 20 21 21 22 24 26 26 28 29 29 34 34 39 39 46
nan nan nan nan nan nan nan nan nan nan nan nan nan nan nan nan nan nan nan nan nan nan nan nan nan nan nan nan nan nan nan nan nan nan nan nan nan nan nan nan nan nan nan nan nan nan nan nan nan nan nan nan nan nan nan nan nan nan 0 1 1 3 6 10 10 13 15 16 18 18 18 20 22 22 25 27 28 28 30 32 32 35 37 38 38 46
nan nan nan nan nan nan nan nan nan nan nan nan nan nan nan nan nan nan nan nan nan nan nan nan nan nan nan nan nan nan nan nan nan nan nan nan nan nan nan nan nan nan nan nan nan nan nan nan nan nan nan nan nan nan nan nan nan 1 2 4 4 7 9 11 11 13 14 16 19 19 20 22 24 24 25 28 31 31 32 36 36 36 37 39 39 45
nan nan nan nan nan nan nan nan nan nan nan nan nan nan nan nan nan nan nan nan nan nan nan nan nan nan nan nan nan nan nan nan nan nan nan nan nan nan nan nan nan nan nan nan nan nan nan nan nan nan nan nan nan nan nan 1 1 3 5 7 7 8 9 11 11 13 15 19 20 20 22 24 25 25 27 30 31 31 33 35 35 36 38 41 41 43
nan nan nan nan nan nan nan nan nan nan nan nan nan nan nan nan nan nan nan 0 0 nan nan nan nan nan nan nan nan nan nan nan nan nan nan nan nan nan nan nan nan nan nan nan nan nan nan nan nan nan nan nan 0 0 1 2 2 4 6 7 7 8 10 12 12 14 17 21 23 23 24 26 28 28 28 29 31 31 33 35 35 35 40 42 42 44
nan nan nan nan nan nan nan nan nan nan nan nan nan nan nan nan nan nan nan nan nan nan nan nan nan nan nan nan nan nan nan nan nan nan nan nan nan nan nan nan nan nan nan nan nan nan nan nan nan nan nan 0 1 1 1 2 2 3 5 8 8 9 11 14 14 15 18 21 24 24 25 28 26 26 28 28 30 30 32 36 36 41 43 46 46 47
nan nan nan nan nan nan nan nan nan nan nan nan nan nan nan nan nan nan nan nan nan nan nan nan nan nan nan nan nan nan nan nan nan nan nan nan nan nan nan nan nan nan nan nan nan nan nan nan nan nan nan 0 0 0 1 2 2 4 7 9 9 11 12 13 13 16 19 21 24 24 28 27 26 26 28 29 33 33 37 39 39 41 41 42 42 44
nan nan nan nan nan nan nan nan nan nan nan nan nan nan nan nan nan nan nan nan nan nan nan nan nan nan nan nan nan nan nan nan nan nan nan nan nan nan nan nan nan nan nan nan nan nan nan nan nan nan nan nan 0 0 1 3 3 6 7 8 8 9 10 12 12 15 18 24 28 28 27 28 28 28 28 33 35 35 35 38 38 40 40 43 43 42
nan nan nan nan nan nan nan nan nan nan nan nan nan nan nan nan nan nan nan nan nan nan nan nan nan nan nan nan nan nan nan nan nan nan nan nan nan nan nan nan nan nan nan nan nan nan nan nan nan nan nan nan 0 0 1 3 3 5 6 6 6 7 8 11 11 15 20 25 28 28 28 28 30 30 30 31 33 33 37 37 37 40 40 39 39 40
nan nan nan nan nan nan 0 nan nan nan nan nan nan nan nan nan nan nan nan nan nan nan nan nan nan nan nan nan nan nan nan nan nan nan nan nan nan nan nan nan nan nan nan nan nan nan nan nan nan nan nan 1 1 1 2 3 3 4 4 5 5 6 8 13 13 16 21 25 27 27 29 29 30 30 32 33 33 33 36 36 36 37 37 38 38 42
nan nan nan nan nan nan nan nan nan nan nan nan nan nan nan nan nan nan nan nan nan nan nan nan nan nan nan nan nan nan nan nan nan nan nan nan nan nan nan nan nan nan nan nan nan nan nan nan nan nan nan 1 1 1 1 2 2 3 3 4 4 7 10 14 14 16 20 23 27 27 29 29 30 30 31 35 36 36 37 36 36 38 39 39 39 40
nan nan nan nan nan nan nan nan nan nan nan nan nan nan nan nan nan nan nan nan nan nan nan nan nan nan nan nan nan nan nan nan nan nan nan nan nan nan nan nan nan nan nan nan nan nan nan nan nan nan nan nan 1 1 1 2 2 4 5 8 8 11 12 14 14 16 19 23 26 26 29 30 32 32 32 35 37 37 36 36 36 36 39 38 38 40
nan nan nan nan nan nan nan nan nan nan nan nan nan nan nan nan nan nan nan nan nan 0 0 nan nan nan nan nan nan nan nan nan nan nan nan nan nan nan nan nan nan nan nan nan nan nan nan nan nan nan nan nan 0 0 1 2 2 5 8 9 9 11 13 14 14 16 19 23 27 27 28 32 34 34 33 35 36 36 35 36 36 35 35 35 35 37
nan nan nan nan nan nan 0 9 24 24 13 7 6 6 6 9 9 9 3 0 0 nan nan nan nan nan nan nan nan nan nan nan nan nan nan nan nan nan nan nan nan nan nan nan nan nan nan nan nan nan nan nan nan nan 0 2 2 5 8 9 9 11 13 14 14 16 18 23 26 26 29 32 32 32 34 36 36 36 35 35 35 36 35 34 34 35
13 15 23 15 15 13 18 20 24 24 25 27 13 13 14 10 2 2 1 0 0 nan nan nan nan nan nan nan nan nan nan nan nan nan nan nan nan nan nan nan nan nan nan nan nan nan nan nan nan nan nan nan nan nan nan 1 1 4 7 8 8 10 11 12 12 15 19 22 25 25 27 29 33 33 33 34 35 35 35 35 35 34 35 34 34 32
7 9 10 12 12 13 13 16 20 20 23 25 26 26 14 0 nan nan nan nan nan nan nan nan nan nan nan nan nan nan nan nan nan nan nan nan nan nan nan nan nan nan nan nan nan nan 0 nan nan nan nan nan nan nan nan nan nan 3 6 8 8 9 10 12 12 15 18 22 23 23 26 28 29 29 32 33 32 32 34 34 34 34 34 23 23 6
1 1 3 6 6 9 13 16 18 18 19 19 21 21 9 nan nan nan nan nan nan nan nan nan nan nan nan nan nan nan nan nan nan nan nan nan nan nan nan nan nan nan nan nan nan nan nan nan nan nan nan nan nan nan nan nan nan 1 4 6 6 8 9 10 10 13 16 18 22 22 24 27 29 29 29 30 30 30 32 32 32 34 24 14 14 2
nan nan nan 0 0 2 0 nan nan nan 8 12 13 13 5 nan nan nan nan nan nan nan nan nan nan nan nan nan nan nan nan nan nan nan nan nan nan nan nan nan nan nan nan nan nan nan nan nan nan nan nan nan nan nan nan nan nan nan nan 3 3 5 7 8 8 11 14 17 20 20 23 25 26 26 27 29 29 29 31 32 32 26 11 3 3 1
nan nan nan nan nan nan nan nan nan nan nan 2 1 1 nan nan nan nan nan nan nan nan nan nan nan nan nan nan nan nan nan nan nan nan nan nan nan nan nan nan nan nan nan nan nan nan nan nan nan nan nan nan nan nan nan nan nan nan nan nan nan nan 2 5 5 8 12 16 19 19 21 23 25 25 25 27 29 29 31 35 35 26 7 2 2 1
nan nan nan nan nan nan nan nan nan nan nan nan nan nan nan nan nan nan nan nan nan nan nan nan nan nan 0 0 nan nan nan nan nan nan nan nan nan nan nan nan nan nan nan nan nan nan nan nan nan nan nan nan nan nan nan nan nan nan nan nan nan nan nan 0 0 2 3 11 17 17 21 22 26 26 27 29 31 31 33 35 35 33 11 3 3 3
nan nan nan nan nan nan nan nan nan nan nan nan nan nan nan nan nan nan nan nan nan nan nan nan nan nan nan nan nan nan 0 nan nan nan nan nan nan nan nan nan nan nan nan nan nan nan nan nan nan nan nan nan nan nan nan nan nan nan nan nan nan nan nan nan nan nan nan 2 7 7 19 21 25 25 28 29 33 33 34 37 37 40 33 6 6 6
nan nan nan nan nan nan nan nan nan nan nan nan nan nan nan nan nan nan nan nan nan nan nan nan nan nan nan nan nan nan nan nan nan nan nan nan nan nan nan nan nan nan nan nan nan nan nan nan nan nan nan nan nan nan nan nan nan nan nan nan nan nan nan nan nan nan nan nan nan nan nan 0 16 16 18 25 28 28 35 41 41 44 49 31 31 13
nan nan nan nan nan nan nan nan nan nan nan nan nan nan nan nan nan nan nan nan nan nan nan nan nan nan nan nan nan nan nan nan nan nan nan nan nan nan nan nan nan nan nan nan nan nan nan nan nan 0 nan nan nan nan nan nan nan nan nan nan nan nan nan nan nan nan nan nan nan nan nan nan nan nan 1 17 29 29 38 44 44 49 52 53 53 36
nan nan nan nan nan nan nan nan nan nan nan nan nan nan nan nan nan nan nan nan nan nan nan nan nan nan nan nan nan nan nan nan nan nan nan nan nan nan nan nan nan nan nan nan nan nan nan nan nan 2 2 nan nan nan nan nan nan nan nan nan nan nan nan nan nan nan nan nan nan nan nan nan nan nan 0 24 36 36 43 47 47 50 51 52 52 48
nan nan nan nan nan nan nan nan nan nan nan nan nan nan nan nan nan nan nan nan nan nan nan nan nan nan nan nan nan nan nan nan nan nan nan nan nan nan nan nan nan nan nan nan nan nan nan nan nan 0 nan nan nan nan nan nan nan nan nan nan nan nan nan nan nan nan nan nan nan nan nan nan 0 0 3 26 28 28 34 42 42 40 46 45 45 48
nan nan nan nan nan nan nan nan nan nan nan nan nan nan nan nan nan nan nan nan nan nan nan nan nan nan nan nan nan nan nan nan nan nan nan nan nan nan nan nan nan nan nan nan nan nan nan nan nan nan nan nan 1 1 0 nan nan nan nan nan nan nan nan nan nan nan nan nan 1 1 3 2 nan nan nan 0 nan nan 0 1 1 19 31 34 34 40
nan nan nan nan nan nan nan nan nan nan nan nan nan nan nan nan nan nan nan nan nan nan nan nan nan nan nan nan nan nan nan nan nan nan nan nan nan nan nan nan nan nan nan nan nan nan nan nan nan nan nan nan nan nan nan nan nan nan nan nan nan nan nan nan nan nan nan nan 2 2 1 nan nan nan nan nan nan nan nan nan nan 4 4 1 1 15
nan nan nan nan nan nan nan nan nan nan nan nan nan nan nan nan nan nan nan nan nan nan nan nan nan nan nan nan nan nan nan nan nan nan nan nan nan nan nan nan nan nan nan nan nan nan nan nan nan 1 2 0 nan nan nan nan nan nan 2 nan nan nan nan nan nan nan nan nan nan nan nan nan nan nan nan nan nan nan nan nan nan nan 1 nan nan nan
nan nan nan nan nan nan nan nan nan nan nan nan nan nan nan nan nan nan nan nan nan nan nan nan nan nan nan nan nan nan nan nan nan nan nan nan nan nan nan nan nan nan nan nan nan 0 2 1 1 2 2 1 1 1 1 0 0 3 7 0 0 nan nan nan nan nan nan nan nan nan nan 0 2 2 0 0 nan nan nan nan nan nan 0 nan nan nan
nan nan nan nan nan nan nan nan nan nan nan nan nan nan nan nan nan nan nan nan nan nan nan nan nan nan nan nan nan nan nan nan nan nan nan nan nan nan nan nan nan nan nan 0 0 2 4 6 6 4 3 1 0 0 0 0 0 2 3 1 1 nan 1 nan nan nan nan nan nan nan 2 0 nan nan 0 nan nan nan nan nan nan 3 5 nan nan nan
nan nan nan nan nan nan nan nan nan nan nan nan nan nan nan nan nan nan nan nan nan nan nan nan nan nan nan nan nan nan nan nan nan nan nan nan nan nan nan nan nan nan 0 1 1 3 6 8 8 4 2 1 0 0 0 0 0 nan 0 1 1 nan nan nan nan nan nan nan nan nan nan nan nan nan nan nan nan nan nan 1 1 11 8 nan nan nan
nan nan nan nan nan nan nan nan nan nan nan nan nan nan nan nan nan nan nan nan nan nan nan nan nan nan nan nan nan nan nan nan nan nan nan nan nan nan nan nan nan nan 0 0 0 0 0 1 1 0 nan nan nan nan nan nan nan nan nan nan nan nan nan nan nan nan nan nan nan nan nan nan nan nan nan nan nan nan nan nan nan nan nan nan nan nan
nan nan nan nan nan nan nan nan nan nan nan nan nan nan nan nan nan nan nan nan nan nan nan nan nan nan nan nan nan nan nan nan nan nan nan nan 8 8 0 nan nan nan nan nan nan nan nan nan nan nan nan nan nan nan nan nan nan nan nan 0 0 nan nan nan nan nan nan nan nan nan nan nan nan nan nan nan nan nan nan nan nan nan nan nan nan nan
nan nan nan nan nan nan nan nan nan nan nan nan nan nan nan nan nan nan nan nan nan nan nan nan nan nan nan nan nan nan 0 nan nan nan nan nan nan nan nan nan nan nan nan nan nan nan nan nan nan nan nan nan nan nan nan nan nan nan nan nan nan nan nan nan nan nan nan nan nan nan nan nan nan nan nan nan nan nan nan nan nan nan nan nan nan nan
nan nan nan nan nan nan nan nan nan nan nan nan nan nan nan nan nan nan nan nan nan nan nan nan nan nan nan nan nan nan 0 0 0 0 nan nan nan nan nan nan nan nan nan nan nan nan nan nan nan nan nan nan nan nan nan nan nan nan nan nan nan nan nan nan nan nan nan nan nan nan nan nan nan nan nan nan nan nan nan nan nan nan nan nan nan nan
nan nan nan nan nan nan nan nan nan nan nan nan nan nan nan nan nan nan nan nan nan nan nan nan nan nan nan nan nan nan 1 1 1 1 0 nan nan nan nan nan nan nan nan nan nan nan nan nan nan nan nan nan nan nan nan nan nan nan nan nan nan nan nan nan nan nan nan nan nan nan nan nan nan nan nan nan nan nan nan nan nan nan nan nan nan nan
nan nan nan nan nan nan nan nan nan nan nan 0 nan nan nan nan 3 3 nan nan nan nan nan nan nan nan nan nan 0 0 3 3 2 2 0 nan nan nan nan nan nan nan nan nan nan nan nan nan nan nan nan nan nan nan nan nan nan nan nan nan nan nan nan nan nan nan nan nan nan nan nan nan nan nan nan nan nan nan nan nan nan nan nan nan nan nan
nan nan nan nan nan nan nan nan nan nan 0 0 0 0 nan nan nan nan nan nan nan nan nan nan nan nan 0 0 1 1 3 3 1 1 nan nan nan nan nan nan nan nan nan nan nan nan nan nan nan nan nan nan nan nan nan nan nan nan nan nan nan nan nan nan nan nan nan nan nan nan nan nan nan nan nan nan nan nan nan nan nan nan nan nan nan nan
nan nan nan nan nan nan nan nan nan nan 1 1 nan nan nan nan nan nan nan nan nan nan nan nan nan 0 1 1 3 3 4 3 0 0 0 nan nan nan 0 0 0 0 nan nan nan nan nan nan nan nan nan 1 nan nan nan nan nan nan nan nan nan nan nan nan nan nan nan nan nan nan nan nan nan nan nan nan nan nan nan nan nan nan nan nan nan nan
CIN
nan nan nan nan nan nan nan nan nan nan nan nan nan nan nan nan nan nan nan nan nan nan nan nan nan nan nan nan nan nan nan nan nan nan nan nan -0 -0 -0 -0 -0 -0 -0 -0 -0 -0 -0 -0 -0 -0 -0 -0 -0 -0 -0 -0 -0 -0 -0 -0 -0 -0 -0 -0 -0 -0 -0 -0 -0 -0 -0 -0 -0 -0 -0 -0 -0 -0 -0 -0 -0 -0 -0 -0 -0 -0
nan nan nan nan nan nan nan nan nan nan nan nan nan nan nan nan nan nan nan nan nan nan nan nan nan nan nan nan nan nan nan nan nan nan nan nan -0 -0 -0 -0 -0 -0 -0 -0 -0 -0 -0 -0 -0 -0 -0 -0 -0 -0 -0 -0 -0 -0 -0 -0 -0 -0 -0 -0 -0 -0 -0 -0 -0 -0 -0 -0 -0 -0 -0 -0 -0 -0 -0 -0 -0 -0 -0 -0 -0 -0
nan nan nan nan nan nan nan nan nan nan nan nan nan nan nan nan nan nan nan nan nan nan nan nan nan nan nan nan nan nan nan nan nan nan nan nan -0 -0 -0 -0 -0 -0 -0 -0 -0 -0 -0 -0 -0 -0 -0 -0 -0 -0 -0 -0 -0 -0 -0 -0 -0 -0 -0 -0 -0 -0 -0 -0 -0 -0 -0 -0 -0 -0 -0 -0 -0 -0 -0 -0 -0 -0 -0 -0 -0 -0
nan nan nan nan nan nan nan nan nan nan nan nan nan nan nan nan nan nan nan nan nan nan nan nan nan nan nan nan nan nan nan nan nan nan nan nan nan nan -0 -0 -0 -0 -0 -0 -0 -0 -0 -0 -0 -0 -0 -0 -0 -0 -0 -0 -0 -0 -0 -0 -0 -0 -0 -0 -0 -0 -0 -0 -0 -0 -0 -0 -0 -0 -0 -0 -0 -0 -0 -0 -0 -0 -0 -0 -0 -0
nan nan nan nan nan nan nan nan nan nan nan nan nan nan nan nan nan nan nan nan nan nan nan nan nan nan nan nan nan nan nan nan nan nan nan nan nan nan nan nan nan -0 -0 -0 -0 -0 -0 -0 -0 -0 -0 -0 -0 -0 -0 -0 -0 -0 -0 -0 -0 -0 -0 -0 -0 -0 -0 -0 -0 -0 -0 -0 -0 -0 -0 -0 -0 -0 -0 -0 -0 -0 -0 -0 -0 -0
nan nan nan nan nan nan nan nan nan nan nan nan nan nan nan nan nan nan nan nan nan nan nan nan nan nan nan nan nan nan nan nan nan nan nan nan nan nan nan nan nan -0 -0 -0 -0 -0 -0 -0 -0 -0 -0 -0 -0 -0 -0 -0 -0 -0 -0 -0 -0 -0 -0 -0 -0 -0 -0 -0 -0 -0 -0 -0 -0 -0 -0 -0 -0 -0 -0 -0 -0 -0 -0 -0 -0 -0
nan nan nan nan nan nan nan nan nan nan nan nan nan nan nan nan nan nan nan nan nan nan nan nan nan nan nan nan nan nan nan nan nan nan nan nan nan nan nan nan nan -0 -0 -0 -0 -0 -0 -0 -0 -0 -0 -0 -0 -0 -0 -0 -0 -0 -0 -0 -0 -0 -0 -0 -0 -0 -0 -0 -0 -0 -0 -0 -0 -0 -0 -0 -0 -0 -0 -0 -0 -0 -0 -0 -0 -0
nan nan nan nan nan nan nan nan nan nan nan nan nan nan nan nan nan nan nan nan nan nan nan nan nan nan nan nan nan nan nan nan nan nan nan nan nan nan nan nan nan nan nan nan nan nan nan -0 -0 -0 -0 -0 -0 -0 -0 -0 -0 -0 -0 -0 -0 -0 -0 -0 -0 -0 -0 -0 -0 -0 -0 -0 -0 -0 -0 -0 -0 -0 -0 -0 -0 -0 -0 -0 -0 -0
nan nan nan nan nan nan nan nan nan nan nan nan nan nan nan nan nan nan nan nan nan nan nan nan nan nan nan nan nan nan nan nan nan nan nan nan nan nan nan nan nan nan nan nan nan nan nan nan nan -0 -0 -0 -0 -0 -0 -0 -0 -0 -0 -0 -0 -0 -0 -0 -0 -0 -0 -0 -0 -0 -0 -0 -0 -0 -0 -0 -0 -0 -0 -0 -0 -0 -0 -0 -0 -0
nan nan nan nan nan nan nan nan nan nan nan nan nan nan nan nan nan nan nan nan nan nan nan nan nan nan nan nan nan nan nan nan nan nan nan nan nan nan nan nan nan nan nan nan nan nan nan nan nan nan nan -0 -0 -0 -0 -0 -0 -0 -0 -0 -0 -0 -0 -0 -0 -0 -0 -0 -0 -0 -0 -0 -0 -0 -0 -0 -0 -0 -0 -0 -0 -0 -0 -0 -0 -0
nan nan nan nan nan nan nan nan nan nan nan nan nan nan nan nan nan nan nan nan nan nan nan nan nan nan nan nan nan nan nan nan nan nan nan nan nan nan nan nan nan nan nan nan nan nan nan nan nan nan nan nan nan nan nan nan nan -0 -0 -0 -0 -0 -0 -0 -0 -0 -0 -0 -0 -0 -0 -0 -0 -0 -0 -0 -0 -0 -0 -0 -0 -0 -0 -0 -0 -0
nan nan nan nan nan nan nan nan nan nan nan nan nan nan nan nan nan nan nan nan nan nan nan nan nan nan nan nan nan nan nan nan nan nan nan nan nan nan nan nan nan nan nan nan nan nan nan nan nan nan nan nan nan nan nan nan nan nan nan nan nan -0 -0 -0 -0 -0 -0 -0 -0 -0 -0 -0 -0 -0 -0 -0 -0 -0 -0 -0 -0 -0 -0 -0 -0 -0
nan nan nan nan nan nan nan nan nan nan nan nan nan nan nan nan nan nan nan nan nan nan nan nan nan nan nan nan nan nan nan nan nan nan nan nan nan nan nan nan nan nan nan nan nan nan nan nan nan nan nan nan nan nan nan nan nan nan nan nan nan -0 -0 -0 -0 -0 -0 -0 -0 -0 -0 -0 -0 -0 -0 -0 -0 -0 -0 -0 -0 -0 -0 -0 -0 -0
nan nan nan nan nan nan nan nan nan nan nan nan nan nan nan nan nan nan nan nan nan nan nan nan nan nan nan nan nan nan nan nan nan nan nan nan nan nan nan nan nan nan nan nan nan nan nan nan nan nan nan nan nan nan nan nan nan nan -0 -0 -0 -0 -0 -0 -0 -0 -0 -0 -0 -0 -0 -0 -0 -0 -0 -0 -0 -0 -0 -0 -0 -0 -0 -0 -0 -0
nan nan nan nan nan nan nan nan nan nan nan nan nan nan nan nan nan nan nan nan nan nan nan nan nan nan nan nan nan nan nan nan nan nan nan nan nan nan nan nan nan nan nan nan nan nan nan nan nan nan nan nan nan nan nan nan nan -0 -0 -0 -0 -0 -0 -0 -0 -0 -0 -0 -0 -0 -0 -0 -0 -0 -0 -0 -0 -0 -0 -0 -0 -0 -0 -0 -0 -0
nan nan nan nan nan nan nan nan nan nan nan nan nan nan nan nan nan nan nan nan nan nan nan nan nan nan nan nan nan nan nan nan nan nan nan nan nan nan nan nan nan nan nan nan nan nan nan nan nan nan nan nan nan nan nan -0 -0 -0 -0 -0 -0 -0 -0 -0 -0 -0 -0 -0 -0 -0 -0 -0 -0 -0 -0 -0 -0 -0 -0 -0 -0 -0 -0 -0 -0 -0
nan nan nan nan nan nan nan nan nan nan nan nan nan nan nan nan nan nan nan -4 -4 nan nan nan nan nan nan nan nan nan nan nan nan nan nan nan nan nan nan nan nan nan nan nan nan nan nan nan nan nan nan nan -0 -0 -0 -0 -0 -0 -0 -0 -0 -0 -0 -0 -0 -0 -0 -0 -0 -0 -0 -0 -0 -0 -0 -0 -0 -0 -0 -0 -0 -0 -0 -0 -0 -0
nan nan nan nan nan nan nan nan nan nan nan nan nan nan nan nan nan nan nan nan nan nan nan nan nan nan nan nan nan nan nan nan nan nan nan nan nan nan nan nan nan nan nan nan nan nan nan nan nan nan nan -0 -0 -0 -0 -0 -0 -0 -0 -0 -0 -0 -0 -0 -0 -0 -0 -0 -0 -0 -0 -0 -0 -0 -0 -0 -0 -0 -0 -0 -0 -0 -0 -0 -0 -0
nan nan nan nan nan nan nan nan nan nan nan nan nan nan nan nan nan nan nan nan nan nan nan nan nan nan nan nan nan nan nan nan nan nan nan nan nan nan nan nan nan nan nan nan nan nan nan nan nan nan nan -0 -0 -0 -0 -0 -0 -0 -0 -0 -0 -0 -0 -0 -0 -0 -0 -0 -0 -0 -0 -0 -0 -0 -0 -0 -0 -0 -0 -0 -0 -0 -0 -0 -0 -0
nan nan nan nan nan nan nan nan nan nan nan nan nan nan nan nan nan nan nan nan nan nan nan nan nan nan nan nan nan nan nan nan nan nan nan nan nan nan nan nan nan nan nan nan nan nan nan nan nan nan nan nan -0 -0 -0 -0 -0 -0 -0 -0 -0 -0 -0 -0 -0 -0 -0 -0 -0 -0 -0 -0 -0 -0 -0 -0 -0 -0 -0 -0 -0 -0 -0 -0 -0 -0
nan nan nan nan nan nan nan nan nan nan nan nan nan nan nan nan nan nan nan nan nan nan nan nan nan nan nan nan nan nan nan nan nan nan nan nan nan nan nan nan nan nan nan nan nan nan nan nan nan nan nan nan -0 -0 -0 -0 -0 -0 -0 -0 -0 -0 -0 -0 -0 -0 -0 -0 -0 -0 -0 -0 -0 -0 -0 -0 -0 -0 -0 -0 -0 -0 -0 -0 -0 -0
nan nan nan nan nan nan -10 nan nan nan nan nan nan nan nan nan nan nan nan nan nan nan nan nan nan nan nan nan nan nan nan nan nan nan nan nan nan nan nan nan nan nan nan nan nan nan nan nan nan nan nan -0 -0 -0 -0 -0 -0 -0 -0 -0 -0 -0 -0 -0 -0 -0 -0 -0 -0 -0 -0 -0 -0 -0 -0 -0 -0 -0 -0 -0 -0 -0 -0 -0 -0 -0
nan nan nan nan nan nan nan nan nan nan nan nan nan nan nan nan nan nan nan nan nan nan nan nan nan nan nan nan nan nan nan nan nan nan nan nan nan nan nan nan nan nan nan nan nan nan nan nan nan nan nan -0 -0 -0 -0 -0 -0 -0 -0 -0 -0 -0 -0 -0 -0 -0 -0 -0 -0 -0 -0 -0 -0 -0 -0 -0 -0 -0 -0 -0 -0 -0 -0 -0 -0 -0
nan nan nan nan nan nan nan nan nan nan nan nan nan nan nan nan nan nan nan nan nan nan nan nan nan nan nan nan nan nan nan nan nan nan nan nan nan nan nan nan nan nan nan nan nan nan nan nan nan nan nan nan -0 -0 -0 -0 -0 -0 -0 -0 -0 -0 -0 -0 -0 -0 -0 -0 -0 -0 -0 -0 -0 -0 -0 -0 -0 -0 -0 -0 -0 -0 -0 -0 -0 -0
nan nan nan nan nan nan nan nan nan nan nan nan nan nan nan nan nan nan nan nan nan -22 -17 nan nan nan nan nan nan nan nan nan nan nan nan nan nan nan nan nan nan nan nan nan nan nan nan nan nan nan nan nan -0 -0 -0 -0 -0 -0 -0 -0 -0 -0 -0 -0 -0 -0 -0 -0 -0 -0 -0 -0 -0 -0 -0 -0 -0 -0 -0 -0 -0 -0 -0 -0 -0 -0
nan nan nan nan nan nan -26 -1 -0 -0 -3 -11 -11 -11 -8 -2 -2 -2 -7 -8 -8 nan nan nan nan nan nan nan nan nan nan nan nan nan nan nan nan nan nan nan nan nan nan nan nan nan nan nan nan nan nan nan nan nan -0 -0 -0 -0 -0 -0 -0 -0 -0 -0 -0 -0 -0 -0 -0 -0 -0 -0 -0 -0 -0 -0 -0 -0 -0 -0 -0 -0 -0 -0 -0 -0
-0 -0 -0 -1 -1 -1 -0 -0 -0 -0 -0 -0 -9 -9 -10 -8 -7 -7 -5 -6 -6 nan nan nan nan nan nan nan nan nan nan nan nan nan nan nan nan nan nan nan nan nan nan nan nan nan nan nan nan nan nan nan nan nan nan -0 -0 -0 -0 -0 -0 -0 -0 -0 -0 -0 -0 -0 -0 -0 -0 -0 -0 -0 -0 -0 -0 -0 -0 -0 -0 -0 -0 -0 -0 -0
-0 -0 -0 -0 -0 -0 -0 -0 -0 -0 -0 -0 -0 -0 -2 -15 nan nan nan nan nan nan nan nan nan nan nan nan nan nan nan nan nan nan nan nan nan nan nan nan nan nan nan nan nan nan -0 nan nan nan nan nan nan nan nan nan nan -0 -0 -0 -0 -0 -0 -0 -0 -0 -0 -0 -0 -0 -0 -0 -0 -0 -0 -0 -0 -0 -0 -0 -0 -0 -0 -0 -0 -5
-6 -4 -1 -0 -0 -0 -0 -0 -0 -0 -0 -0 -0 -0 -1 nan nan nan nan nan nan nan nan nan nan nan nan nan nan nan nan nan nan nan nan nan nan nan nan nan nan nan nan nan nan nan nan nan nan nan nan nan nan nan nan nan nan -0 -0 -0 -0 -0 -0 -0 -0 -0 -0 -0 -0 -0 -0 -0 -0 -0 -0 -0 -0 -0 -0 -0 -0 -0 -0 -0 -0 -10
nan nan nan -7 -7 -2 -7 nan nan nan -0 -0 -0 -0 -0 nan nan nan nan nan nan nan nan nan nan nan nan nan nan nan nan nan nan nan nan nan nan nan nan nan nan nan nan nan nan nan nan nan nan nan nan nan nan nan nan nan nan nan nan -0 -0 -0 -0 -0 -0 -0 -0 -0 -0 -0 -0 -0 -0 -0 -0 -0 -0 -0 -0 -0 -0 -0 -1 -13 -13 -16
nan nan nan nan nan nan nan nan nan nan nan -1 -2 -2 nan nan nan nan nan nan nan nan nan nan nan nan nan nan nan nan nan nan nan nan nan nan nan nan nan nan nan nan nan nan nan nan nan nan nan nan nan nan nan nan nan nan nan nan nan nan nan nan -0 -0 -0 -0 -0 -0 -0 -0 -0 -0 -0 -0 -0 -0 -0 -0 -0 -0 -0 -0 -8 -17 -17 -17
nan nan nan nan nan nan nan nan nan nan nan nan nan nan nan nan nan nan nan nan nan nan nan nan nan nan -5 -4 nan nan nan nan nan nan nan nan nan nan nan nan nan nan nan nan nan nan nan nan nan nan nan nan nan nan nan nan nan nan nan nan nan nan nan -1 -1 -0 -0 -0 -0 -0 -0 -0 -0 -0 -0 -0 -0 -0 -0 -0 -0 -0 -3 -14 -14 -12
nan nan nan nan nan nan nan nan nan nan nan nan nan nan nan nan nan nan nan nan nan nan nan nan nan nan nan nan nan nan -7 nan nan nan nan nan nan nan nan nan nan nan nan nan nan nan nan nan nan nan nan nan nan nan nan nan nan nan nan nan nan nan nan nan nan nan nan -2 -0 -0 -0 -0 -0 -0 -0 -0 -0 -0 -0 -0 -0 -0 -0 -12 -12 -12
nan nan nan nan nan nan nan nan nan nan nan nan nan nan nan nan nan nan nan nan nan nan nan nan nan nan nan nan nan nan nan nan nan nan nan nan nan nan nan nan nan nan nan nan nan nan nan nan nan nan nan nan nan nan nan nan nan nan nan nan nan nan nan nan nan nan nan nan nan nan nan -14 -0 -0 -0 -0 -0 -0 -0 -0 -0 -0 -0 -0 -0 -6
nan nan nan nan nan nan nan nan nan nan nan nan nan nan nan nan nan nan nan nan nan nan nan nan nan nan nan nan nan nan nan nan nan nan nan nan nan nan nan nan nan nan nan nan nan nan nan nan nan -4 nan nan nan nan nan nan nan nan nan nan nan nan nan nan nan nan nan nan nan nan nan nan nan nan -9 -0 -0 -0 -0 -0 -0 -0 -0 -0 -0 -0
nan nan nan nan nan nan nan nan nan nan nan nan nan nan nan nan nan nan nan nan nan nan nan nan nan nan nan nan nan nan nan nan nan nan nan nan nan nan nan nan nan nan nan nan nan nan nan nan nan -3 -2 nan nan nan nan nan nan nan nan nan nan nan nan nan nan nan nan nan nan nan nan nan nan nan -19 -0 -0 -0 -0 -0 -0 -0 -0 -0 -0 -0
nan nan nan nan nan nan nan nan nan nan nan nan nan nan nan nan nan nan nan nan nan nan nan nan nan nan nan nan nan nan nan nan nan nan nan nan nan nan nan nan nan nan nan nan nan nan nan nan nan -5 nan nan nan nan nan nan nan nan nan nan nan nan nan nan nan nan nan nan nan nan nan nan -17 -17 -10 -0 -0 -0 -0 -0 -0 -0 -0 -0 -0 -0
nan nan nan nan nan nan nan nan nan nan nan nan nan nan nan nan nan nan nan nan nan nan nan nan nan nan nan nan nan nan nan nan nan nan nan nan nan nan nan nan nan nan nan nan nan nan nan nan nan nan nan nan -3 -3 -4 nan nan nan nan nan nan nan nan nan nan nan nan nan -9 -9 -7 -11 nan nan nan -15 nan nan -15 -14 -14 -0 -0 -0 -0 -0
nan nan nan nan nan nan nan nan nan nan nan nan nan nan nan nan nan nan nan nan nan nan nan nan nan nan nan nan nan nan nan nan nan nan nan nan nan nan nan nan nan nan nan nan nan nan nan nan nan nan nan nan nan nan nan nan nan nan nan nan nan nan nan nan nan nan nan nan -9 -9 -13 nan nan nan nan nan nan nan nan nan nan -8 -8 -14 -14 -0
nan nan nan nan nan nan nan nan nan nan nan nan nan nan nan nan nan nan nan nan nan nan nan nan nan nan nan nan nan nan nan nan nan nan nan nan nan nan nan nan nan nan nan nan nan nan nan nan nan -6 -3 -6 nan nan nan nan nan nan -4 nan nan nan nan nan nan nan nan nan nan nan nan nan nan nan nan nan nan nan nan nan nan nan -11 nan nan nan
nan nan nan nan nan nan nan nan nan nan nan nan nan nan nan nan nan nan nan nan nan nan nan nan nan nan nan nan nan nan nan nan nan nan nan nan nan nan nan nan nan nan nan nan nan -14 -8 -9 -9 -6 -6 -7 -4 -4 -5 -7 -7 -1 -0 -6 -6 nan nan nan nan nan nan nan nan nan nan -15 -12 -12 -20 -18 nan nan nan nan nan nan -14 nan nan nan
nan nan nan nan nan nan nan nan nan nan nan nan nan nan nan nan nan nan nan nan nan nan nan nan nan nan nan nan nan nan nan nan nan nan nan nan nan nan nan nan nan nan nan -14 -14 -10 -6 -3 -3 -3 -5 -6 -5 -5 -6 -5 -5 -2 -1 -5 -5 nan -6 nan nan nan nan nan nan nan -10 -16 nan nan -19 nan nan nan nan nan nan -9 -4 nan nan nan
nan nan nan nan nan nan nan nan nan nan nan nan nan nan nan nan nan nan nan nan nan nan nan nan nan nan nan nan nan nan nan nan nan nan nan nan nan nan nan nan nan nan -23 -9 -9 -6 -5 -3 -3 -4 -5 -5 -4 -4 -4 -4 -4 nan -6 -4 -4 nan nan nan nan nan nan nan nan nan nan nan nan nan nan nan nan nan nan -11 -11 -0 -0 nan nan nan
nan nan nan nan nan nan nan nan nan nan nan nan nan nan nan nan nan nan nan nan nan nan nan nan nan nan nan nan nan nan nan nan nan nan nan nan nan nan nan nan nan nan -32 -18 -18 -11 -9 -5 -5 -6 nan nan nan nan nan nan nan nan nan nan nan nan nan nan nan nan nan nan nan nan nan nan nan nan nan nan nan nan nan nan nan nan nan nan nan nan
nan nan nan nan nan nan nan nan nan nan nan nan nan nan nan nan nan nan nan nan nan nan nan nan nan nan nan nan nan nan nan nan nan nan nan nan -21 -21 -48 nan nan nan nan nan nan nan nan nan nan nan nan nan nan nan nan nan nan nan nan -4 -4 nan nan nan nan nan nan nan nan nan nan nan nan nan nan nan nan nan nan nan nan nan nan nan nan nan
nan nan nan nan nan nan nan nan nan nan nan nan nan nan nan nan nan nan nan nan nan nan nan nan nan nan nan nan nan nan -10 nan nan nan nan nan nan nan nan nan nan nan nan nan nan nan nan nan nan nan nan nan nan nan nan nan nan nan nan nan nan nan nan nan nan nan nan nan nan nan nan nan nan nan nan nan nan nan nan nan nan nan nan nan nan nan
nan nan nan nan nan nan nan nan nan nan nan nan nan nan nan nan nan nan nan nan nan nan nan nan nan nan nan nan nan nan -8 -9 -15 -15 nan nan nan nan nan nan nan nan nan nan nan nan nan nan nan nan nan nan nan nan nan nan nan nan nan nan nan nan nan nan nan nan nan nan nan nan nan nan nan nan nan nan nan nan nan nan nan nan nan nan nan nan
nan nan nan nan nan nan nan nan nan nan nan nan nan nan nan nan nan nan nan nan nan nan nan nan nan nan nan nan nan nan -6 -7 -9 -9 -16 nan nan nan nan nan nan nan nan nan nan nan nan nan nan nan nan nan nan nan nan nan nan nan nan nan nan nan nan nan nan nan nan nan nan nan nan nan nan nan nan nan nan nan nan nan nan nan nan nan nan nan
nan nan nan nan nan nan nan nan nan nan nan -13 nan nan nan nan -0 -0 nan nan nan nan nan nan nan nan nan nan -8 -8 -7 -7 -11 -11 -16 nan nan nan nan nan nan nan nan nan nan nan nan nan nan nan nan nan nan nan nan nan nan nan nan nan nan nan nan nan nan nan nan nan nan nan nan nan nan nan nan nan nan nan nan nan nan nan nan nan nan nan
nan nan nan nan nan nan nan nan nan nan -8 -9 -12 -12 nan nan nan nan nan nan nan nan nan nan nan nan -6 -8 -9 -9 -10 -11 -14 -14 nan nan nan nan nan nan nan nan nan nan nan nan nan nan nan nan nan nan nan nan nan nan nan nan nan nan nan nan nan nan nan nan nan nan nan nan nan nan nan nan nan nan nan nan nan nan nan nan nan nan nan nan
nan nan nan nan nan nan nan nan nan nan -2 -3 nan nan nan nan nan nan nan nan nan nan nan nan nan -7 -6 -6 -7 -7 -7 -9 -13 -13 -14 nan nan nan -14 -13 -13 -13 nan nan nan nan nan nan nan nan nan -12 nan nan nan nan nan nan nan nan nan nan nan nan nan nan nan nan nan nan nan nan nan nan nan nan nan nan nan nan nan nan nan nan nan nan
Wind_Speed
1 1 1 1 1 1 1 0 0 0 1 2 2 2 2 2 2 2 2 2 2 2 3 3 3 3 5 7 9 11 12 13 13 13 14 14 14 14 15 15 15 15 15 15 15 15 16 16 16 17 17 17 17 17 17 18 18 18 18 18 18 18 19 19 19 19 20 20 20 20 20 20 20 20 19 20 20 20 20 20 20 20 21 21 21 22
2 1 1 2 2 1 1 1 0 1 1 1 2 2 2 2 3 3 2 2 2 2 3 3 3 3 4 5 8 10 12 13 13 14 14 15 15 15 15 15 15 15 16 16 16 16 16 16 17 17 17 17 17 17 17 17 17 17 18 18 18 18 19 19 19 20 20 20 20 20 20 20 20 20 20 20 20 20 21 21 21 21 21 22 22 22
2 1 1 1 1 1 1 2 1 2 2 2 1 1 1 2 2 3 3 2 2 2 2 2 3 3 3 5 7 10 12 13 14 14 15 15 15 16 16 16 16 16 16 16 16 16 17 17 17 17 17 17 17 17 17 17 17 17 18 18 18 19 19 19 20 20 20 20 20 20 20 20 20 20 20 20 21 21 21 21 21 22 22 22 22 23
1 1 1 1 1 0 2 2 2 1 2 2 1 1 1 2 2 3 3 3 3 3 3 2 2 2 3 4 6 9 12 14 15 15 16 16 16 16 16 16 16 16 16 16 16 16 16 17 17 17 17 17 17 17 17 17 17 17 18 18 18 19 19 19 20 20 20 20 20 20 20 20 20 21 21 21 21 21 21 21 22 22 22 22 23 23
1 1 1 1 1 1 2 2 1 1 1 1 1 1 1 2 2 3 3 2 2 3 3 2 2 2 2 3 5 9 12 14 15 16 16 16 16 16 16 15 15 15 15 15 16 16 16 16 16 17 17 17 17 17 17 17 17 18 18 18 19 19 19 20 20 20 20 20 20 20 20 20 20 20 21 21 21 21 21 22 22 22 22 23 23 23
1 1 1 0 1 2 2 1 1 1 1 1 1 1 2 2 2 2 2 2 2 2 2 2 2 2 2 3 6 9 12 14 15 16 16 15 15 15 15 15 15 14 15 15 15 15 16 16 16 17 17 17 17 17 18 18 18 18 19 19 19 20 20 20 20 20 20 20 20 20 20 20 20 20 21 21 21 21 22 22 22 23 23 23 24 24
1 1 1 1 1 1 1 1 1 1 0 1 1 1 1 1 1 2 2 2 2 2 2 2 2 2 2 3 6 8 10 12 13 14 14 14 14 14 14 14 14 14 15 15 15 16 16 16 17 17 18 18 18 18 19 19 19 20 20 20 20 20 20 20 20 20 20 20 20 20 20 20 20 20 21 21 21 21 22 22 23 23 23 24 24 24
1 1 1 1 1 2 2 1 1 0 0 0 0 1 2 2 2 2 2 2 1 1 2 2 2 2 2 3 4 6 7 8 8 9 10 11 11 12 13 13 14 15 15 15 16 17 17 18 18 18 19 19 19 20 20 20 20 20 21 21 21 21 20 20 20 20 20 20 20 20 20 20 21 21 21 21 21 22 22 23 23 23 24 24 24 25
1 1 1 0 0 1 2 2 1 1 0 1 0 1 1 2 2 2 2 2 1 1 1 2 2 3 2 2 3 4 5 6 6 6 6 6 7 8 10 12 13 14 16 16 17 18 19 19 19 19 20 20 20 20 21 21 21 21 21 20 20 20 20 20 20 20 20 20 20 21 21 21 21 21 21 22 22 22 23 23 23 24 24 25 25 25
1 1 1 1 0 1 0 2 2 1 0 0 1 1 1 1 1 2 2 2 2 1 1 1 2 3 3 3 3 3 5 6 7 8 8 8 8 9 10 11 12 13 16 17 18 19 19 19 20 20 20 20 20 20 20 20 20 20 20 20 20 20 20 20 20 20 20 21 21 21 21 21 22 22 22 22 23 23 23 23 24 24 25 25 25 26
1 1 1 1 1 0 1 2 2 2 1 1 0 0 1 1 0 1 3 3 3 2 1 1 2 3 4 4 4 4 4 5 5 7 8 9 10 11 11 11 12 13 16 16 17 18 18 19 19 19 19 19 19 19 19 19 19 19 20 20 20 20 20 20 20 21 21 21 21 22 22 22 22 22 23 23 23 23 24 24 24 25 25 25 26 26
1 0 0 0 1 1 1 1 1 1 1 2 2 2 2 1 0 0 2 3 4 3 3 2 2 2 3 3 4 4 3 3 3 4 4 5 6 6 7 8 9 11 12 13 14 15 16 17 18 18 18 18 18 19 19 19 19 19 20 20 20 20 21 21 21 21 21 21 22 22 22 23 23 23 23 24 24 24 24 24 25 25 25 26 26 26
0 0 0 0 1 1 1 1 1 2 1 1 1 1 2 2 1 0 1 2 3 3 3 3 3 2 2 3 2 2 2 3 3 3 3 3 3 3 4 5 6 6 7 8 8 9 12 15 16 16 16 17 17 18 19 19 19 20 20 21 21 21 21 21 21 21 22 22 22 23 23 23 23 24 24 24 24 25 25 25 25 25 25 26 26 26
0 1 1 1 1 1 0 0 1 1 1 1 1 2 2 2 1 0 1 2 2 3 3 3 4 3 2 2 2 1 1 2 3 3 4 4 3 3 3 4 5 5 5 5 5 6 9 10 11 11 14 15 16 17 17 18 19 20 21 21 21 21 21 22 22 22 22 23 23 23 24 24 24 24 24 25 25 25 25 25 25 25 26 26 26 27
1 1 1 1 0 1 0 0 1 1 2 2 2 1 1 1 1 0 1 2 3 3 3 3 4 3 3 2 1 0 1 2 3 4 5 5 4 3 3 4 5 5 5 5 6 6 8 8 7 8 9 11 13 15 17 18 19 21 21 21 22 22 22 22 22 23 23 23 23 24 24 24 24 24 24 25 25 25 25 25 25 25 26 26 26 27
1 2 1 1 1 1 1 1 1 2 2 2 1 1 0 1 1 1 1 3 3 3 3 4 4 3 2 2 1 1 1 2 3 5 7 6 5 3 3 4 5 5 5 5 5 6 6 6 6 7 8 11 15 17 19 20 20 21 22 22 22 22 23 23 23 23 24 24 24 24 24 24 24 24 24 24 25 25 25 25 25 25 26 26 26 26
2 2 2 1 1 1 2 1 2 2 2 1 1 1 1 1 1 1 2 3 3 3 3 3 4 4 3 2 1 1 1 3 4 5 7 7 6 4 3 3 5 6 6 5 5 5 6 6 6 6 7 11 15 19 20 21 21 22 23 23 23 23 23 24 24 24 24 24 24 24 24 24 24 24 24 24 24 25 25 25 25 25 26 26 26 26
2 2 2 1 1 1 1 1 1 2 1 1 1 1 1 2 1 2 2 3 3 3 3 3 3 3 4 3 3 2 0 2 4 6 7 7 6 4 3 3 4 5 6 6 5 5 5 5 6 7 9 15 18 20 21 22 23 23 23 23 24 24 24 24 24 24 24 24 24 24 24 24 24 24 24 24 24 25 25 25 25 25 26 26 26 26
2 2 2 2 2 2 2 2 2 1 1 1 1 1 1 2 2 2 2 2 3 3 4 4 3 3 3 4 4 2 1 3 4 6 7 8 7 5 3 3 4 5 5 5 5 5 5 5 7 10 14 18 20 21 22 23 23 23 24 24 24 24 24 24 24 24 24 24 24 24 24 24 24 24 24 24 24 25 25 25 25 26 26 26 26 27
2 2 2 2 2 2 2 2 2 2 2 2 2 1 2 2 2 2 2 2 2 3 3 4 4 4 4 4 4 3 2 3 4 5 6 7 6 5 3 3 4 5 5 5 4 4 5 5 7 10 14 17 19 21 23 23 23 24 24 24 24 24 24 24 24 24 24 24 24 24 24 24 24 24 24 24 25 25 25 26 26 26 26 27 27 27
0 1 2 2 2 2 2 2 3 3 3 3 2 2 2 2 2 2 2 2 3 3 3 4 4 4 4 4 4 3 2 3 3 4 5 5 5 4 3 3 3 5 6 6 5 4 5 5 6 7 11 16 19 21 23 23 24 24 24 24 24 24 24 24 24 24 24 24 24 24 24 24 24 24 24 25 25 25 26 26 26 27 27 27 27 27
1 1 1 2 2 2 3 3 3 4 4 2 2 2 2 2 3 3 3 3 3 4 4 4 5 4 4 4 4 3 1 1 2 3 4 6 6 5 3 3 3 5 6 6 5 5 5 5 6 7 11 16 20 22 23 23 24 24 24 24 24 24 24 24 24 24 24 24 24 24 24 24 25 25 25 25 26 26 26 26 27 27 27 27 27 27
1 2 2 3 3 3 3 3 3 3 3 3 2 2 2 2 3 3 3 3 4 4 5 5 5 4 4 3 3 2 1 1 1 2 3 6 6 6 3 3 4 5 6 6 6 6 6 6 7 8 12 17 20 21 23 23 23 24 24 24 24 24 24 24 24 24 24 24 24 24 25 25 25 26 26 26 26 26 26 26 27 27 27 27 27 28
3 3 4 4 4 3 3 3 3 3 3 3 3 3 3 3 3 3 3 3 4 4 4 4 4 4 3 3 3 2 1 1 1 1 2 5 6 5 4 4 5 7 8 6 6 7 8 8 7 8 9 14 18 20 22 22 23 23 23 23 23 23 24 24 24 24 24 25 25 25 26 26 26 26 26 26 26 26 26 27 27 27 27 27 28 28
3 4 4 4 5 5 4 4 3 3 2 3 3 3 3 4 4 4 3 3 3 3 3 4 4 4 3 4 3 2 1 1 1 1 2 4 5 5 4 4 5 7 8 7 6 7 8 8 8 7 7 11 15 18 20 21 22 23 23 23 23 23 24 24 24 25 25 25 26 26 26 26 26 26 26 26 26 27 27 27 27 27 27 28 28 28
5 5 5 6 7 7 7 6 5 5 5 3 3 2 2 3 3 3 2 2 2 2 4 4 5 5 4 3 3 3 2 1 1 2 2 3 5 5 4 3 4 6 8 7 7 7 8 9 8 7 6 8 11 15 18 20 21 22 22 23 23 23 24 25 25 26 26 26 26 26 26 27 27 27 27 27 27 27 27 27 27 27 28 28 28 27
8 7 6 6 6 5 5 6 7 8 9 8 7 6 4 3 3 3 3 2 2 3 4 5 6 6 5 4 3 3 3 2 1 2 2 3 4 5 4 4 4 6 8 8 7 8 9 10 9 8 7 7 8 11 16 18 20 21 22 22 23 24 25 25 26 26 26 26 26 27 26 26 26 27 27 27 27 27 27 27 27 27 27 26 24 22
7 7 7 6 5 6 6 7 8 8 9 10 10 10 6 4 3 3 4 3 2 3 4 5 5 5 5 4 4 3 3 2 2 2 2 2 3 4 4 4 5 6 7 8 8 8 9 9 8 8 7 6 6 8 12 15 17 19 21 22 23 24 25 26 26 26 26 26 26 26 26 26 26 27 27 27 27 27 27 27 27 27 25 21 17 14
5 6 6 7 7 7 7 7 7 8 9 9 10 9 6 3 2 3 3 2 2 2 4 4 5 5 5 5 4 4 3 3 2 1 1 1 3 4 4 4 5 5 6 7 7 7 6 6 5 5 5 6 6 6 7 11 13 15 17 20 22 23 24 25 25 26 26 26 26 26 26 26 27 27 27 27 27 27 27 28 27 24 19 16 13 12
3 4 4 4 5 5 5 4 5 6 8 8 9 8 5 2 1 2 3 2 2 2 3 4 4 4 5 5 5 4 3 2 1 1 1 1 3 4 4 5 5 5 5 5 6 6 6 4 4 4 4 6 6 5 6 7 8 10 11 15 17 19 21 23 24 24 25 25 25 26 26 26 26 27 27 27 27 27 27 28 25 21 14 12 11 11
1 1 1 2 2 3 3 2 3 4 6 6 7 6 4 2 2 2 2 2 2 2 3 4 4 4 4 4 4 4 3 2 1 1 1 2 3 4 4 5 5 4 3 4 5 6 7 5 4 4 4 6 7 7 7 7 7 7 7 9 10 12 17 19 21 22 23 23 24 25 25 26 26 26 27 27 27 27 27 27 24 19 13 11 11 11
1 0 1 1 2 2 2 2 2 3 3 4 4 4 4 3 2 2 2 2 2 2 2 3 4 4 4 4 4 4 4 3 2 2 3 3 4 4 4 5 5 5 4 3 4 5 6 6 6 5 5 7 7 7 8 8 7 6 7 7 7 9 14 16 17 18 18 20 22 23 24 25 25 26 26 26 26 26 26 27 24 20 13 11 11 12
0 1 1 1 2 2 2 2 2 2 2 2 3 3 3 3 2 2 1 2 1 2 2 3 4 4 4 5 5 5 4 4 4 5 5 4 4 4 4 4 5 5 5 4 5 5 6 7 7 7 7 7 7 7 7 7 7 6 6 6 6 7 10 12 13 13 14 15 17 19 21 22 23 24 24 25 25 25 25 26 24 21 17 13 12 12
1 1 1 1 2 2 2 2 2 2 2 2 2 2 2 2 2 2 2 1 1 1 2 2 3 4 5 5 5 5 5 4 5 6 6 4 4 4 5 5 6 6 6 5 5 6 6 7 8 8 7 7 7 7 7 7 7 6 5 6 6 6 8 9 9 10 11 12 12 13 14 15 17 19 20 21 22 23 24 24 25 24 22 17 14 13
1 1 1 1 2 2 2 2 2 2 2 2 2 2 2 1 1 1 2 2 2 2 2 2 3 4 4 5 6 6 6 5 5 6 6 5 4 4 5 5 5 6 6 6 6 6 6 8 9 9 9 8 7 6 6 6 6 6 5 6 6 7 7 8 8 10 11 11 10 10 10 10 11 13 15 17 19 21 23 24 25 25 25 23 20 17
1 1 1 2 2 2 2 2 2 2 2 2 2 2 2 2 2 2 2 2 3 3 3 3 3 4 4 5 6 6 7 6 6 7 7 5 5 5 5 5 6 6 7 7 7 7 7 9 10 10 11 10 9 7 6 6 6 6 6 7 7 8 8 8 9 9 10 10 10 10 9 9 10 10 12 16 19 22 24 24 25 26 26 26 25 23
0 1 2 2 2 2 2 2 2 2 2 2 2 2 2 2 2 3 3 3 3 4 4 5 5 5 5 5 6 6 7 7 7 8 8 6 6 5 6 6 6 7 7 8 8 8 8 9 10 10 10 9 8 8 7 7 7 7 7 7 8 8 8 8 8 9 9 10 10 10 10 10 10 11 12 16 19 20 22 23 23 24 25 25 26 26
1 1 2 2 2 2 2 2 2 2 2 2 2 2 2 3 3 3 4 4 4 4 4 4 5 6 8 8 9 8 8 9 9 10 10 8 7 6 7 7 7 8 7 8 8 8 9 9 10 10 10 9 9 10 10 9 9 9 8 8 8 8 9 8 8 8 9 10 11 12 12 11 11 11 11 12 13 13 14 14 16 18 21 22 23 25
1 2 2 2 2 2 2 2 2 2 2 2 2 3 3 3 3 4 4 4 4 4 5 5 5 5 7 8 10 10 11 11 11 11 11 9 8 7 8 8 8 8 8 8 8 8 9 9 9 10 10 10 10 10 10 9 10 10 10 10 9 9 8 8 8 9 9 10 11 11 11 10 10 10 10 10 10 10 11 11 12 13 14 14 16 20
2 2 2 2 2 2 2 2 2 2 2 3 3 3 3 3 3 3 3 4 4 4 4 5 5 5 6 7 8 9 10 9 9 10 9 8 7 7 8 8 8 8 8 7 7 8 8 9 10 10 10 10 11 11 10 10 10 11 12 10 9 8 8 8 9 9 9 9 9 10 10 10 10 10 10 10 10 10 10 10 10 11 12 11 12 13
2 2 2 2 2 2 2 2 2 2 2 3 3 3 3 3 3 3 3 3 3 4 4 4 5 5 5 5 6 7 8 9 9 9 8 9 9 9 8 8 8 8 8 8 8 8 8 9 10 10 10 11 11 12 12 12 12 13 14 12 11 10 11 10 10 9 9 9 9 9 11 11 12 12 11 11 11 11 11 11 12 12 12 11 11 11
3 3 2 2 2 2 2 2 2 3 3 2 2 2 3 3 3 3 3 3 3 3 3 3 4 5 5 5 5 6 7 7 8 9 10 10 10 10 8 7 7 7 7 8 8 8 8 9 10 10 11 11 11 11 11 12 12 12 12 12 12 13 12 11 9 8 9 9 9 10 11 11 11 11 12 12 11 11 11 12 13 14 14 12 11 11
3 2 2 2 2 2 2 2 2 2 2 2 2 2 2 3 3 3 4 3 4 4 4 4 4 5 6 6 5 5 5 6 7 9 9 9 9 9 8 7 7 6 6 7 7 8 8 9 10 10 10 10 11 12 13 13 12 12 11 12 12 11 9 9 8 8 9 10 10 10 10 10 10 11 11 12 12 12 12 13 15 16 15 13 12 12
2 2 2 2 1 1 1 1 1 1 2 2 3 3 3 3 3 3 3 3 4 4 4 4 4 5 6 6 6 5 4 5 6 7 7 8 7 7 6 6 6 6 5 6 7 8 9 10 10 10 10 10 11 11 12 12 12 12 11 11 11 11 10 10 11 11 11 10 10 10 10 10 11 11 12 12 12 12 12 12 12 13 14 13 13 13
2 1 1 1 1 1 1 1 1 1 2 2 3 3 3 3 3 3 3 3 3 4 4 4 4 5 5 6 6 5 5 5 4 4 5 6 7 7 6 5 5 5 6 6 6 7 8 9 10 10 9 10 10 11 12 12 12 12 12 12 12 12 12 12 12 11 11 11 11 11 11 10 11 12 13 13 13 12 12 12 13 13 13 13 13 14
1 1 1 1 1 1 2 2 1 2 2 3 3 3 3 3 3 3 3 3 3 4 4 4 4 5 6 6 6 6 6 6 5 4 4 4 4 4 5 5 5 5 6 6 7 7 8 9 10 11 10 10 11 11 11 11 12 12 12 12 12 11 12 11 11 11 11 11 12 12 12 12 12 12 13 14 14 14 13 13 13 13 13 13 13 14
1 2 2 1 1 2 2 1 2 2 2 3 3 3 3 3 3 3 3 3 3 4 4 4 4 5 6 7 7 7 7 7 7 6 5 4 4 4 4 4 5 6 6 7 7 8 9 10 10 10 10 11 11 11 11 11 11 11 12 12 12 11 12 11 11 11 11 11 12 12 12 12 12 13 14 14 15 14 14 13 13 13 13 13 13 14
2 2 2 2 2 2 1 1 1 2 2 3 3 3 3 3 4 4 3 3 3 4 5 5 5 5 7 7 7 7 7 8 8 7 6 5 5 5 4 4 5 6 6 7 8 9 9 10 10 10 10 10 11 11 12 11 10 10 11 11 11 12 12 12 11 11 11 11 12 12 11 10 11 13 14 15 15 15 15 14 13 12 12 12 13 14
2 2 2 2 2 2 2 2 2 2 3 3 3 3 3 4 5 5 4 3 3 4 4 5 6 6 7 7 7 7 8 7 7 7 6 6 6 6 5 5 5 5 6 6 6 7 7 8 9 10 9 9 10 11 12 11 10 10 10 10 10 11 12 12 12 11 11 12 13 13 12 11 11 12 13 14 15 16 17 16 15 13 12 12 12 13
2 2 1 1 1 2 2 2 2 3 3 3 3 3 3 3 3 3 3 3 3 4 4 5 6 7 7 7 7 7 7 7 7 6 6 6 6 6 6 6 6 7 7 6 6 6 6 6 6 8 9 10 9 9 9 10 10 10 10 10 10 10 11 12 12 12 12 12 13 13 13 12 12 11 11 13 15 17 18 17 16 15 13 12 12 13
2 1 1 1 2 2 2 2 3 3 3 4 4 4 3 3 3 3 3 3 4 4 5 5 6 6 7 7 7 7 7 7 7 7 6 6 6 6 7 7 7 7 8 7 7 6 6 5 5 5 6 9 9 9 7 8 9 10 10 10 9 9 10 11 12 12 13 13 13 13 13 13 12 11 11 12 14 15 17 17 17 16 14 13 13 14
Wind_Direction
321 325 360 41 50 40 313 355 80 67 308 312 317 325 336 338 324 295 275 261 250 249 257 263 269 279 290 301 307 311 314 314 313 311 309 307 305 304 302 301 300 298 297 296 294 293 292 290 289 288 287 287 286 285 285 284 284 284 284 284 285 286 286 286 286 285 284 284 283 282 281 281 280 280 280 279 279 278 277 276 276 275 274 273 273 272
335 340 3 38 50 44 298 292 193 164 222 276 295 313 335 329 318 305 292 266 249 245 254 265 273 279 283 293 305 313 316 316 315 313 311 309 308 306 305 304 303 302 301 300 299 297 296 294 293 292 290 289 288 287 286 285 285 285 285 286 287 287 287 287 287 286 285 285 284 283 282 281 281 280 279 278 278 277 276 275 275 274 273 272 272 272
340 346 345 25 49 52 279 280 245 201 200 229 257 292 325 310 299 292 288 281 272 265 261 265 273 281 282 288 306 315 317 317 316 314 312 311 309 308 307 306 305 304 303 301 300 299 297 296 294 293 291 290 289 288 287 286 286 286 286 286 287 287 288 288 287 287 286 285 284 283 283 282 281 279 278 278 277 276 276 275 274 274 273 273 272 272
328 327 308 344 360 273 247 258 254 236 218 234 253 270 272 265 266 267 267 273 281 285 280 272 273 280 285 289 304 312 316 316 315 314 313 311 310 309 307 306 305 304 303 301 300 299 297 296 294 293 292 291 289 289 288 287 287 287 287 287 287 288 288 288 288 287 286 285 285 284 283 282 281 280 279 278 277 277 276 275 275 274 274 273 273 273
264 246 263 315 308 279 259 258 261 269 264 260 263 260 246 246 253 261 267 272 279 285 286 282 280 280 288 294 304 310 314 314 314 314 313 312 310 309 308 307 306 305 303 302 301 299 297 296 295 293 293 292 291 290 290 289 288 288 288 288 289 289 289 289 288 288 287 286 285 284 283 282 282 281 280 279 279 278 277 277 276 275 275 274 274 273
253 244 245 247 262 270 280 287 302 312 302 293 279 264 249 247 256 270 283 288 290 289 289 288 282 280 285 290 302 308 311 312 313 313 312 311 311 310 310 309 308 307 306 305 303 302 301 299 298 297 296 295 294 294 293 292 291 291 291 291 291 291 290 290 289 288 287 287 286 285 284 284 283 282 282 281 280 279 278 278 277 276 275 275 274 274
271 277 299 278 270 274 289 301 314 326 327 329 317 304 286 274 271 275 278 287 292 294 294 290 286 283 282 286 296 303 308 309 310 310 310 310 311 311 312 312 312 312 310 309 308 307 305 304 302 301 300 299 298 297 296 295 294 294 293 293 292 292 291 290 289 288 288 287 286 286 285 285 284 283 283 282 281 280 279 278 278 277 276 276 275 275
276 302 324 314 312 312 310 302 294 287 160 89 336 318 312 306 299 291 291 295 295 296 300 300 299 294 287 285 291 297 301 304 305 305 306 307 309 311 313 315 315 315 314 313 312 310 308 307 305 304 302 301 300 299 298 297 296 295 295 294 293 292 292 291 290 289 288 288 287 286 286 285 284 284 283 282 281 280 280 279 278 278 277 277 277 276
191 260 289 283 360 349 324 310 300 279 171 146 173 268 294 303 308 313 321 317 311 305 308 314 311 305 295 287 287 291 293 298 299 300 303 304 308 312 315 317 318 317 316 314 313 311 309 308 306 305 303 302 301 300 299 298 297 296 296 295 294 293 292 291 291 290 289 289 288 287 286 286 285 284 283 282 281 281 280 280 279 279 279 279 278 278
174 201 255 252 184 151 207 287 291 293 277 159 166 182 204 265 304 321 328 318 311 309 309 310 309 307 305 300 295 293 295 299 303 306 310 313 316 318 319 320 319 316 314 313 312 310 309 307 306 305 303 302 301 300 299 299 298 297 296 296 295 294 293 292 292 291 290 289 288 288 287 286 285 284 283 283 282 282 281 281 281 281 280 280 280 280
173 191 230 272 262 204 192 247 270 290 329 25 45 69 145 180 270 325 325 313 311 312 310 299 299 304 309 309 304 300 300 302 305 309 313 316 319 320 320 319 316 313 312 311 310 309 308 307 305 304 303 302 301 301 300 300 299 298 298 297 296 295 294 293 292 291 290 289 288 287 286 285 285 284 284 284 283 283 283 282 282 282 281 281 280 280
163 171 169 290 313 315 290 282 294 318 360 20 11 354 331 295 222 289 314 309 311 314 314 305 295 292 293 297 298 300 305 308 309 310 313 315 318 319 319 316 313 311 310 309 308 307 306 305 304 303 303 302 302 301 301 300 299 299 298 297 296 294 293 292 291 290 289 288 287 287 286 286 286 285 285 285 285 284 284 283 282 282 281 281 280 280
132 126 106 42 11 358 344 342 343 350 4 18 352 316 297 285 268 228 276 291 299 306 311 311 306 294 275 268 275 292 310 310 309 308 311 311 312 313 314 311 309 307 307 306 304 303 303 303 302 302 301 301 301 300 300 299 298 297 296 295 294 293 292 290 289 289 288 288 287 287 287 287 287 287 286 286 285 284 284 283 283 282 282 281 281 281
85 76 69 47 22 355 353 21 360 332 307 261 242 245 253 261 270 289 287 287 288 292 303 307 306 301 284 268 269 295 320 316 314 313 313 309 307 309 312 308 306 305 304 302 299 298 299 301 301 300 299 299 299 298 297 296 295 294 293 292 291 291 290 289 289 289 289 289 289 289 288 288 287 287 286 286 285 285 284 284 284 283 283 283 282 282
150 109 80 56 339 287 252 193 208 236 248 238 234 235 246 268 281 285 291 294 296 301 308 306 303 296 281 276 280 326 326 338 331 324 318 311 308 309 311 307 304 302 301 299 297 296 298 298 296 293 293 292 291 291 291 292 291 291 291 291 290 290 291 291 291 290 290 290 289 289 288 288 287 287 287 286 286 286 286 286 285 285 284 284 283 283
160 136 124 149 225 247 235 211 217 234 245 241 235 230 255 276 268 268 291 302 309 315 321 318 314 306 283 271 258 268 345 352 340 325 316 310 309 313 315 307 303 300 298 296 295 294 295 291 287 285 286 287 288 289 290 291 291 291 292 292 292 292 292 292 291 291 290 290 289 289 289 288 288 288 288 288 288 288 287 287 287 286 286 285 284 283
159 144 139 152 210 246 242 225 222 228 240 244 236 218 203 219 237 269 304 312 317 320 320 320 318 314 306 301 284 268 360 352 335 319 311 306 307 309 311 302 298 296 296 293 292 291 290 288 286 284 284 286 288 290 292 293 293 293 293 293 293 293 292 292 291 291 290 290 290 289 289 289 289 289 289 289 289 289 289 288 288 287 287 286 285 284
162 150 139 156 207 232 233 228 229 230 234 240 240 231 213 222 250 291 313 316 317 315 312 310 305 303 306 306 298 288 338 346 328 314 307 302 302 304 304 292 288 288 290 289 288 286 285 285 284 285 287 291 292 293 294 295 294 294 293 293 293 292 292 291 291 291 290 290 290 290 290 290 290 290 290 290 290 290 289 289 289 288 288 287 287 286
186 181 186 202 211 215 214 215 217 220 222 222 219 224 253 269 288 305 309 307 305 303 303 299 294 289 291 291 292 299 338 334 321 310 305 301 302 304 305 291 285 284 286 286 287 287 286 285 286 288 290 293 294 294 294 294 294 293 293 293 292 292 292 291 291 291 291 291 291 291 291 291 291 291 291 291 290 290 290 290 290 290 289 289 288 287
204 191 176 182 193 206 213 214 211 208 209 207 209 227 271 288 295 298 294 294 290 286 284 284 284 284 285 287 291 305 340 333 318 306 301 298 299 301 304 293 289 289 289 289 289 289 288 286 287 290 292 292 293 293 293 293 293 293 293 292 292 292 292 291 291 291 291 291 291 291 291 291 291 291 291 292 292 292 292 292 291 291 290 289 289 288
216 192 182 180 189 206 219 216 212 209 208 212 226 254 276 287 291 289 285 283 278 274 272 274 276 278 283 288 293 307 340 333 318 307 301 298 298 300 304 296 293 294 294 294 292 289 288 286 285 287 288 291 291 292 293 293 293 293 293 292 292 292 291 291 291 291 291 291 291 291 291 292 292 292 292 293 293 293 292 292 291 291 290 289 288 288
332 261 206 196 207 230 252 241 228 219 213 214 232 258 273 282 285 284 280 274 271 270 269 270 272 276 281 286 291 298 328 309 301 301 303 299 298 299 306 303 300 298 297 297 296 294 288 286 284 284 286 289 290 291 292 292 292 292 292 291 291 291 291 291 291 291 291 291 291 291 292 292 293 293 293 293 293 293 292 291 291 290 289 289 288 287
254 254 241 229 232 241 251 244 236 227 215 206 209 219 233 254 266 270 270 266 265 267 269 272 274 277 278 280 281 276 236 204 236 284 298 295 296 300 312 313 306 300 296 298 299 297 293 288 286 285 286 288 289 289 290 290 290 290 290 290 290 290 290 290 290 290 290 291 291 291 292 293 293 293 293 293 293 292 291 291 290 290 289 289 288 288
238 245 247 245 242 240 239 235 230 222 207 203 207 216 225 238 248 254 257 260 265 270 275 281 284 284 278 276 275 267 233 181 176 245 285 288 293 299 312 314 306 299 295 296 298 298 296 291 287 284 284 285 286 286 287 287 287 288 288 288 288 288 288 289 289 289 290 290 291 292 292 293 293 293 292 292 292 291 291 291 290 290 290 289 289 288
233 235 240 239 236 231 227 229 231 231 217 210 216 227 237 247 254 259 261 263 269 277 289 294 295 294 293 295 294 288 264 175 162 202 273 284 290 294 303 306 302 298 296 297 298 298 295 292 288 285 281 281 282 283 284 285 285 285 286 286 287 287 288 288 289 289 290 290 291 291 292 292 292 292 291 291 291 291 291 291 291 291 290 290 290 289
266 251 242 236 233 234 240 255 275 292 299 292 280 271 273 278 281 283 283 282 292 304 308 303 300 299 300 302 300 296 289 225 184 198 250 280 289 293 298 299 297 296 297 299 300 299 296 293 291 288 282 280 280 281 281 282 282 283 284 285 286 287 288 288 289 290 290 291 291 291 291 291 291 291 291 291 291 291 291 291 292 292 292 292 291 290
303 296 281 261 254 259 276 299 311 316 316 315 314 313 314 319 316 309 302 307 316 318 311 304 301 300 301 299 296 295 300 290 247 218 229 270 284 291 297 300 300 299 299 299 299 298 295 293 292 290 286 280 278 277 277 279 280 282 284 285 287 288 288 289 289 289 290 290 290 290 290 291 291 291 291 291 292 292 292 292 293 293 293 293 292 291
325 331 336 332 329 327 328 327 325 322 320 317 315 315 318 323 316 305 296 303 310 309 298 296 297 300 302 300 299 299 301 290 264 235 215 256 277 286 296 302 302 301 300 299 297 294 291 288 287 285 282 277 273 272 273 276 279 282 284 285 286 287 287 288 288 288 289 289 289 290 290 290 291 291 292 292 292 292 293 293 294 294 294 293 292 289
342 351 353 351 349 346 344 341 336 330 323 319 316 315 318 317 301 285 280 283 290 291 287 289 292 295 298 298 299 297 293 277 258 220 151 245 275 283 295 300 301 302 303 302 299 294 286 280 277 276 276 276 274 272 273 277 279 282 284 284 285 285 285 286 286 287 287 288 289 289 290 291 291 292 292 293 293 293 293 294 294 294 293 292 289 287
344 352 354 353 355 357 359 353 341 329 321 317 314 313 315 306 262 248 253 254 262 274 283 288 290 293 297 300 301 297 287 268 233 181 140 264 283 289 300 301 302 304 309 308 305 301 293 282 273 270 276 284 285 283 281 280 280 280 281 281 282 282 283 283 284 285 286 287 288 289 290 291 292 292 293 293 293 293 293 294 294 294 292 289 287 285
307 324 337 345 352 356 354 341 326 317 312 309 308 306 304 281 238 225 229 232 241 257 276 286 289 291 294 298 298 295 291 282 237 201 208 282 290 295 304 301 300 301 304 305 306 305 303 299 292 286 288 292 292 289 286 283 280 278 276 278 278 279 280 282 283 285 286 287 288 289 290 291 292 292 292 292 292 292 292 293 293 292 290 288 285 284
264 311 347 336 333 329 325 315 307 300 295 294 293 290 284 272 250 228 218 218 227 244 268 282 286 286 285 281 281 283 287 296 296 294 303 296 293 293 298 297 296 296 295 287 287 292 298 301 302 302 299 295 292 289 286 283 280 278 276 277 277 278 280 282 284 286 287 288 289 290 290 291 291 291 291 291 291 291 291 291 291 290 288 286 284 283
119 50 355 319 310 304 298 293 287 280 275 271 268 268 270 272 271 265 244 230 232 245 264 280 285 285 282 277 274 274 280 288 298 304 306 299 293 291 293 293 293 294 294 284 276 274 279 288 295 300 298 293 290 289 288 285 282 279 276 277 279 281 283 285 286 286 287 288 288 288 289 289 289 289 289 289 289 289 289 289 288 287 285 284 282 282
62 20 318 307 303 299 295 289 280 273 265 264 264 265 263 269 282 294 301 294 284 274 267 276 282 286 287 284 280 279 280 283 292 297 300 293 288 288 291 291 293 294 296 291 285 279 276 282 288 294 296 293 290 288 288 287 285 282 276 277 279 282 285 286 286 285 285 285 286 286 287 287 286 286 286 286 286 286 286 286 286 285 284 283 282 282
20 333 314 309 304 300 297 292 284 276 271 275 280 281 276 273 276 286 296 297 293 284 269 265 268 275 280 283 284 284 283 285 288 290 289 284 284 287 290 289 290 293 294 292 290 289 285 286 288 291 295 295 293 289 286 286 286 284 280 278 279 282 284 285 285 285 285 285 284 284 283 283 282 282 283 284 284 285 285 286 286 285 284 283 281 280
358 322 305 295 289 284 282 277 275 274 276 277 276 276 273 267 266 268 273 278 281 279 273 264 259 257 259 266 272 276 279 281 283 283 282 280 281 285 287 285 287 289 289 289 289 289 289 289 290 291 293 294 295 294 291 289 289 289 288 285 284 283 282 282 282 283 284 284 284 283 283 282 282 282 282 284 285 286 286 286 286 285 284 282 280 278
311 289 276 262 259 262 269 266 263 262 264 266 267 267 268 264 264 267 270 268 269 270 272 269 264 258 254 254 258 263 270 276 279 279 278 277 277 279 280 281 281 282 283 286 288 289 290 291 292 292 291 290 292 296 300 301 298 294 291 290 288 286 284 282 280 280 281 282 283 284 285 285 285 285 285 286 286 287 286 286 285 284 283 281 279 276
261 257 252 244 243 248 260 265 265 262 257 257 260 264 264 261 261 262 268 265 264 264 267 267 267 265 262 263 263 264 268 272 275 276 275 274 273 273 274 277 277 276 275 278 283 287 289 290 293 294 293 290 290 292 297 301 301 298 295 292 290 287 286 284 282 282 282 283 285 286 286 287 287 286 286 286 286 285 285 283 282 281 281 279 277 275
239 242 243 241 241 243 251 260 263 261 260 262 266 270 271 268 265 264 263 264 262 261 260 262 265 267 266 266 267 268 269 270 271 271 271 270 268 267 269 272 274 275 274 274 276 279 281 283 286 290 293 294 295 295 295 296 297 298 299 297 292 288 285 286 287 286 286 286 287 287 287 286 285 285 285 285 284 284 283 282 281 280 279 279 278 276
232 235 240 241 240 242 251 266 272 273 276 282 288 290 290 288 284 279 273 272 270 268 264 263 266 268 266 265 265 266 267 267 267 268 268 265 263 262 263 267 272 275 277 275 274 273 275 278 281 284 287 290 293 296 297 296 296 298 301 300 298 295 293 293 292 289 286 285 286 287 288 287 287 286 285 285 284 283 282 283 282 280 279 278 278 278
231 237 239 238 239 245 259 276 285 290 292 294 298 299 298 297 295 295 295 292 290 287 285 282 280 278 273 266 262 261 261 262 263 263 263 261 260 260 260 263 268 273 277 276 275 274 274 278 281 284 286 288 290 291 292 293 295 297 299 297 296 295 297 295 293 291 289 288 287 288 290 291 290 289 288 286 284 281 280 281 281 280 279 275 272 272
240 241 235 234 235 245 259 276 288 296 299 301 302 299 297 298 299 302 306 306 304 301 300 298 295 292 288 280 269 261 257 259 259 260 260 259 258 257 258 260 264 269 274 277 277 277 277 280 283 286 288 291 292 292 291 292 293 295 295 294 295 296 296 293 292 292 294 293 292 292 291 292 291 290 289 288 286 283 281 278 278 278 278 274 270 266
245 247 243 237 237 245 258 276 290 299 306 307 302 297 294 296 300 305 306 304 302 300 300 298 296 294 293 290 284 274 263 259 258 259 259 258 256 255 255 255 257 262 269 278 283 285 286 285 285 285 287 290 290 290 290 292 294 294 292 293 297 300 300 299 300 300 297 295 294 293 292 292 291 291 290 288 287 285 283 280 278 277 276 274 272 268
250 255 254 247 244 249 263 276 286 293 299 300 299 297 294 296 299 301 301 298 297 298 299 297 295 293 291 291 290 287 279 267 259 256 256 256 255 254 256 258 260 266 274 283 289 292 293 288 285 283 285 286 286 286 287 289 291 292 292 293 293 293 291 296 301 303 300 297 295 294 294 294 293 293 292 289 288 286 284 281 279 276 273 271 269 268
249 256 256 254 254 256 262 266 276 288 296 299 299 298 294 297 298 298 295 293 293 295 294 296 296 295 292 293 294 295 294 289 279 269 262 261 265 269 273 276 281 284 284 282 283 285 288 288 287 286 286 284 282 282 284 287 289 291 291 293 291 289 285 290 295 298 299 298 298 297 298 298 298 297 295 291 289 286 283 281 279 277 274 270 268 266
234 245 252 256 263 269 271 276 285 296 300 299 297 294 289 292 292 291 289 288 290 292 292 293 294 294 294 297 299 301 301 300 297 292 286 280 279 281 284 285 285 284 282 279 277 276 276 280 284 288 290 287 282 279 278 283 287 290 291 293 293 292 290 292 294 296 297 298 299 300 301 302 300 297 293 292 289 287 283 280 278 276 275 272 269 267
231 245 257 265 270 274 275 284 292 297 299 297 294 290 287 288 289 290 289 288 289 291 294 294 292 291 291 295 298 300 301 301 302 302 301 299 296 294 292 289 284 281 278 277 275 273 271 272 276 280 284 286 285 283 281 282 284 287 290 294 295 295 295 295 296 297 298 298 299 300 304 303 299 295 292 291 290 288 285 281 277 275 274 273 271 269
246 259 268 271 274 274 274 276 284 289 294 294 292 290 288 290 293 294 291 292 293 296 298 297 295 292 290 291 293 294 296 298 300 303 305 306 305 304 301 298 292 287 281 277 274 272 269 267 265 266 269 274 279 282 285 285 285 286 289 292 295 296 296 296 298 299 299 298 297 298 299 298 296 294 294 293 291 288 286 284 281 277 274 273 272 271
248 258 265 267 267 267 267 271 278 285 288 288 288 287 286 289 293 294 292 293 294 295 295 294 293 291 290 291 291 292 292 293 296 299 305 308 310 310 309 307 303 299 292 285 279 275 271 265 258 254 252 258 267 275 282 284 285 287 288 291 294 296 296 297 299 301 301 299 297 295 293 291 289 289 291 291 290 289 289 287 285 281 277 274 273 272
240 245 249 252 257 262 266 274 282 287 288 288 288 288 289 289 289 290 288 289 289 289 288 288 289 289 290 291 292 293 294 295 297 300 304 309 311 312 312 311 310 308 304 299 295 290 286 278 265 254 247 250 256 266 278 284 288 291 292 293 295 296 297 298 299 300 301 299 297 296 293 290 287 285 285 285 286 288 289 289 287 286 283 280 278 276
239 239 237 240 250 260 269 278 283 285 286 287 289 291 293 293 292 291 290 289 289 287 286 285 285 286 288 290 292 293 294 296 298 302 306 310 312 312 311 312 312 312 310 308 307 306 303 301 293 280 261 257 260 266 278 288 294 298 297 297 297 298 297 297 298 299 299 298 297 295 293 291 288 286 283 284 286 288 289 290 290 289 289 288 286 283